[[{"header":{"parameterUnit":"m.s-1","parameterCategory":1,"la1":30.2991,"la2":30.254,"lo1":-89.0895,"lo2":-89.0444,"dy":0.0017,"dx":0.0017,"nx":28,"ny":28,"refTime":"2024-03-25T03:00:00:Z","depth":0,"parameterNumber":2,"parameterNumberName":"U-component_of_WINDS"},"data":[0,0,0,0,0,0,0,0,0,0,0,0,0,0,0,0,0,0,0,0,0,0,0,0,0,0,0,0,0,0,0,0,0,0,0,0,0,0,0,0,0,0,0,0,0,0,0,0,0,0,0,0,0,0,0,0,0,0,-3.6599,-3.6601,0,-3.6803,-3.6805,-3.6807,-3.6888,-3.6887,-3.6887,-3.6886,-3.7091,-3.7096,-3.7102,0,0,0,0,0,0,0,0,0,0,0,0,0,-3.6275,-3.628,-3.6598,-3.6601,-3.6604,-3.6802,-3.6805,-3.6808,-3.6888,-3.6887,-3.6886,-3.6886,-3.7089,-3.7096,-3.7103,0,0,0,0,0,0,0,0,0,0,0,0,0,-3.644,-3.6282,-3.6598,-3.6668,-3.6676,-3.6802,-3.6805,-3.6809,-3.6888,-3.6887,-3.6886,-3.6885,-3.7086,-3.7095,-3.7104,-3.7174,0,0,-3.7131,-3.7135,0,0,0,0,0,0,0,0,-3.6431,-3.6452,-3.6655,-3.6663,-3.6672,-3.6819,-3.6766,-3.6931,-3.6888,-3.6807,-3.6886,-3.6885,-3.7001,-3.7016,-3.7056,-3.7184,-3.7193,-3.7132,-3.7137,-3.7141,-3.7143,0,0,0,0,0,0,0,-3.6419,-3.6444,-3.6679,-3.6658,-3.6668,-3.6687,-3.671,-3.6798,-3.6906,-3.6814,-3.682,-3.6844,-3.7005,-3.7047,-3.7062,-3.7196,-3.7131,-3.7139,-3.7145,-3.7148,-3.7392,-3.7393,0,0,0,0,0,0,-3.6397,-3.6434,-3.6673,-3.6685,-3.6547,-3.6694,-3.6719,-3.6773,-3.6905,-3.6924,-3.6844,-3.6847,-3.7033,-3.7051,-3.7069,-3.7161,-3.7141,-3.7149,-3.7154,-3.739,-3.7392,-3.7393,0,0,0,0,0,0,-3.639,-3.6417,-3.6664,-3.6562,-3.6594,-3.67,-3.676,-3.6777,-3.682,-3.6928,-3.6947,-3.6868,-3.7033,-3.7057,-3.7148,-3.7169,-3.7153,-3.7161,-3.7389,-3.7391,-3.7392,-3.7344,0,0,0,0,0,0,-3.638,-3.6414,-3.6443,-3.6562,-3.66,-3.6741,-3.6761,-3.6782,-3.6835,-3.684,-3.6955,-3.6973,-3.7034,-3.7134,-3.7157,-3.7181,-3.7168,-3.7388,-3.739,-3.7392,-3.7344,-3.7344,-3.7343,0,0,0,0,0,-3.6368,-3.642,-3.6444,-3.6472,-3.6638,-3.6742,-3.6763,-3.6834,-3.6837,-3.6866,-3.6935,-3.697,-3.7163,-3.7143,-3.7169,-3.7196,-3.7387,-3.7389,-3.7392,-3.7344,-3.7344,-3.7343,0,0,0,0,0,0,-3.63,-3.6437,-3.6465,-3.6557,-3.6637,-3.6755,-3.6794,-3.6831,-3.6911,-3.6912,-3.6995,-3.702,-3.7104,-3.7159,-3.7134,-3.7271,-3.7277,-3.7285,-3.7232,-3.7233,-3.7232,-3.7217,-3.7176,0,0,0,0,0,-3.6296,-3.637,-3.6485,-3.6556,-3.6595,-3.6687,-3.6735,-3.6783,-3.6868,-3.6902,-3.6978,-3.7059,-3.7138,-3.7189,-3.7267,-3.7353,-3.7378,-3.7384,-3.7383,-3.7383,-3.7388,-3.7437,-3.7441,-3.7401,-3.7401,-3.7401,0,0,-3.6288,-3.6372,-3.6413,-3.6544,-3.6612,-3.6686,-3.6715,-3.6792,-3.6847,-3.6913,-3.7005,-3.7063,-3.7159,-3.7247,-3.729,-3.7296,-3.7405,-3.7386,-3.7384,-3.7391,-3.744,-3.7444,-3.7447,-3.7403,-3.7403,-3.7402,0,0,-3.6311,-3.6382,-3.6449,-3.6516,-3.6619,-3.668,-3.6696,-3.6809,-3.6851,-3.6944,-3.6995,-3.7062,-3.7196,-3.7262,-3.7313,-3.7362,-3.7396,-3.7385,-3.7383,-3.743,-3.7433,-3.7436,-3.7453,-3.7458,-3.7391,-3.7391,-3.739,0,-3.6287,-3.6402,-3.6478,-3.6552,-3.6608,-3.6673,-3.674,-3.6802,-3.6924,-3.696,-3.6966,-3.7136,-3.7205,-3.731,-3.7322,-3.7361,-3.7381,-3.7372,-3.7427,-3.7431,-3.7435,-3.7452,-3.7458,-3.7388,-3.7389,-3.7389,-3.7389,0,-3.6368,-3.6446,-3.6488,-3.6606,-3.6666,-3.6736,-3.6822,-3.6874,-3.6916,-3.6976,-3.707,-3.7155,-3.7252,-3.7281,-3.7322,-3.7392,-3.7392,-3.7411,-3.7418,-3.7435,-3.7452,-3.746,-3.7386,-3.7386,-3.7387,-3.7387,0,0,-3.6353,-3.6513,-3.6527,-3.6581,-3.6699,-3.6761,-3.6834,-3.6931,-3.6973,-3.7056,-3.7118,-3.7231,-3.725,-3.7308,-3.7357,-3.7398,-3.7431,-3.7412,-3.7416,-3.7412,-3.7512,-3.7497,-3.7503,-3.7454,-3.7456,-3.7457,-3.7504,0,-3.6391,-3.6526,-3.6597,-3.6701,-3.6774,-3.6837,-3.6901,-3.698,-3.7038,-3.7108,-3.7172,-3.7251,-3.7269,-3.7305,-3.7348,-3.7417,-3.7452,-3.7415,-3.7512,-3.7515,-3.7486,-3.7512,-3.7497,-3.7536,-3.7511,-3.7512,-3.7513,0,-3.6454,-3.6537,-3.6649,-3.6759,-3.6793,-3.6849,-3.6943,-3.7009,-3.71,-3.7139,-3.7204,-3.7253,-3.7332,-3.7334,-3.7442,-3.7416,-3.746,-3.75,-3.7503,-3.7514,-3.7514,-3.7524,-3.7551,-3.7556,-3.7525,-3.7524,-3.7523,0,-3.6431,-3.6571,-3.6657,-3.6701,-3.6832,-3.687,-3.6926,-3.7016,-3.7069,-3.7151,-3.7187,-3.7276,-3.7325,-3.7392,-3.7463,-3.7459,-3.7565,-3.7573,-3.7599,-3.7597,-3.7618,-3.7616,-3.7652,-3.7647,-3.7647,-3.7647,-3.7647,0,-3.6467,-3.6533,-3.6648,-3.67,-3.6776,-3.6856,-3.6928,-3.6989,-3.7068,-3.7133,-3.7192,-3.7251,-3.7342,-3.7412,-3.7468,-3.7549,-3.757,-3.7604,-3.7618,-3.7599,-3.7594,-3.7628,-3.7627,-3.7648,-3.7648,-3.7648,-3.7647,0,-3.6454,-3.6534,-3.6631,-3.6748,-3.6778,-3.6829,-3.6928,-3.698,-3.7042,-3.7123,-3.7146,-3.7243,-3.7328,-3.7406,-3.7519,-3.7557,-3.7639,-3.7657,-3.7609,-3.7617,-3.7638,-3.7635,-3.7697,-3.7709,-3.7696,-3.7696,-3.7696,0,-3.6471,-3.6524,-3.6646,-3.6694,-3.6749,-3.6826,-3.6881,-3.6962,-3.7017,-3.7124,-3.7163,-3.7253,-3.733,-3.7463,-3.7543,-3.7629,-3.765,-3.7666,-3.7663,-3.7642,-3.765,-3.7645,-3.7651,-3.7664,-3.7664,-3.7664,-3.7664,0,-3.6493,-3.653,-3.6608,-3.6701,-3.6765,-3.6842,-3.6919,-3.6955,-3.705,-3.7109,-3.7198,-3.7257,-3.7373,-3.7462,-3.7558,-3.7614,-3.7654,-3.7664,-3.7675,-3.7655,-3.7625,-3.7641,-3.7606,-3.7662,-3.7662,-3.7662,-3.7662,-3.7662,-3.6496,-3.6545,-3.6639,-3.6724,-3.6792,-3.6863,-3.6918,-3.6988,-3.7064,-3.7166,-3.7208,-3.7298,-3.7387,-3.7521,-3.7577,-3.7648,-3.7656,-3.7671,-3.7675,-3.7677,-3.7673,-3.7614,-3.7665,-3.7665,-3.7666,-3.7666,-3.7666,0,-3.652,-3.6584,-3.6662,-3.6769,-3.6836,-3.687,-3.6958,-3.7011,-3.709,-3.717,-3.7245,-3.7346,-3.7433,-3.7519,-3.761,-3.765,-3.7671,-3.7671,-3.7668,-3.7681,-3.7661,-3.7643,-3.7653,-3.7653,-3.7653,-3.7653,-3.7653,-3.7653,-3.6541,-3.6626,-3.6675,-3.6794,-3.6857,-3.6947,-3.6994,-3.706,-3.7125,-3.7236,-3.7309,-3.7365,-3.7448,-3.7545,-3.7625,-3.7649,-3.7679,-3.7674,-3.7702,-3.7682,-3.7682,-3.7682,-3.7666,-3.768,-3.768,-3.7716,-3.7716,-3.7716]},{"header":{"parameterUnit":"m.s-1","parameterCategory":1,"la1":30.2991,"la2":30.254,"lo1":-89.0895,"lo2":-89.0444,"dy":0.0017,"dx":0.0017,"nx":28,"ny":28,"refTime":"2024-03-25T03:00:00:Z","depth":0,"parameterNumber":3,"parameterNumberName":"V-component_of_WINDS"},"data":[0,0,0,0,0,0,0,0,0,0,0,0,0,0,0,0,0,0,0,0,0,0,0,0,0,0,0,0,0,0,0,0,0,0,0,0,0,0,0,0,0,0,0,0,0,0,0,0,0,0,0,0,0,0,0,0,0,0,7.0062,7.0063,0,7.0164,7.0166,7.0167,7.0186,7.0185,7.0184,7.0183,7.0281,7.0284,7.0287,0,0,0,0,0,0,0,0,0,0,0,0,0,6.9874,6.9878,7.0061,7.0063,7.0064,7.0164,7.0166,7.0167,7.0186,7.0185,7.0184,7.0183,7.028,7.0284,7.0288,0,0,0,0,0,0,0,0,0,0,0,0,0,6.9964,6.9879,7.0061,7.0086,7.0089,7.0164,7.0166,7.0167,7.0186,7.0185,7.0183,7.0182,7.0278,7.0283,7.0288,7.0344,0,0,7.0304,7.0306,0,0,0,0,0,0,0,0,6.9959,6.9971,7.0081,7.0084,7.0088,7.0161,7.0135,7.0226,7.0186,7.0149,7.0183,7.0182,7.0241,7.0249,7.0271,7.0348,7.0352,7.0304,7.0307,7.0309,7.0311,0,0,0,0,0,0,0,6.9953,6.9966,7.0102,7.0082,7.0087,7.0089,7.0101,7.0153,7.02,7.0152,7.0154,7.0166,7.0243,7.0266,7.0274,7.0354,7.0304,7.0308,7.0311,7.0313,7.0483,7.0484,0,0,0,0,0,0,6.9943,6.9961,7.0099,7.0105,7.0019,7.0094,7.0106,7.0139,7.02,7.0208,7.0167,7.0167,7.0258,7.0268,7.0277,7.0348,7.0309,7.0314,7.0317,7.0481,7.0483,7.0485,0,0,0,0,0,0,6.9939,6.9955,7.0095,7.0034,7.0052,7.0098,7.0134,7.0141,7.0165,7.0211,7.0219,7.0182,7.0258,7.027,7.0328,7.0351,7.0316,7.0321,7.048,7.0482,7.0484,7.0488,0,0,0,0,0,0,6.9934,6.9954,6.9977,7.0034,7.0055,7.0146,7.0136,7.0144,7.0174,7.0175,7.0228,7.0236,7.0258,7.032,7.0333,7.0357,7.0325,7.0478,7.0481,7.0483,7.0486,7.049,7.0493,0,0,0,0,0,6.9927,6.9972,6.9978,6.9994,7.0085,7.0147,7.0159,7.0185,7.0176,7.0199,7.0229,7.0234,7.0346,7.0326,7.034,7.0367,7.0476,7.048,7.0483,7.0484,7.0489,7.0493,0,0,0,0,0,0,6.9913,6.998,6.9987,7.0053,7.0095,7.015,7.018,7.019,7.0233,7.0231,7.026,7.0272,7.0328,7.0353,7.0329,7.0424,7.041,7.0417,7.0406,7.0412,7.0415,7.0408,7.0329,0,0,0,0,0,6.9918,6.9965,7.002,7.0072,7.0093,7.0133,7.016,7.0178,7.0221,7.0238,7.0272,7.0312,7.0357,7.0385,7.0428,7.0489,7.0501,7.0514,7.0518,7.0521,7.0526,7.0561,7.0568,7.0496,7.0496,7.0496,0,0,6.9927,6.997,6.9997,7.007,7.0105,7.0151,7.0147,7.0196,7.023,7.0245,7.0303,7.0329,7.0375,7.0435,7.0463,7.0458,7.0549,7.0525,7.0527,7.0531,7.0565,7.0572,7.0578,7.0498,7.0498,7.0497,0,0,6.997,7.0006,7.0055,7.009,7.0144,7.017,7.0182,7.0237,7.0256,7.0315,7.0328,7.0367,7.0443,7.0476,7.0502,7.0558,7.0565,7.0571,7.0591,7.0625,7.0631,7.0636,7.0657,7.0664,7.0576,7.0576,7.0576,0,6.9974,7.0048,7.0078,7.0128,7.0159,7.0177,7.0226,7.0257,7.0321,7.0341,7.0334,7.0431,7.0463,7.0532,7.0546,7.0567,7.058,7.0566,7.0628,7.0633,7.0639,7.0659,7.0666,7.0577,7.0577,7.0577,7.0577,0,7.0051,7.0101,7.0134,7.0199,7.0233,7.0282,7.0318,7.0349,7.0363,7.039,7.045,7.0489,7.0542,7.0559,7.0572,7.063,7.0625,7.0622,7.0609,7.0646,7.0665,7.0673,7.0578,7.0577,7.0577,7.0577,0,0,7.0087,7.017,7.0181,7.0212,7.0272,7.031,7.0359,7.0413,7.044,7.0482,7.0524,7.0588,7.0588,7.0618,7.0634,7.0664,7.0707,7.0658,7.066,7.0667,7.0774,7.0776,7.0785,7.0711,7.0713,7.0714,7.077,0,7.0138,7.0229,7.0258,7.0333,7.038,7.0398,7.044,7.0481,7.0507,7.0549,7.0576,7.0622,7.0617,7.0636,7.0666,7.0695,7.0729,7.0691,7.0749,7.0751,7.0738,7.0795,7.0797,7.0848,7.0778,7.0779,7.078,0,7.0209,7.0257,7.0338,7.0394,7.0415,7.0453,7.0505,7.0545,7.0591,7.0608,7.0643,7.0658,7.0708,7.0691,7.076,7.0734,7.0759,7.0777,7.078,7.0787,7.0768,7.0804,7.0865,7.0873,7.0792,7.0791,7.079,0,7.0229,7.0313,7.0373,7.0398,7.0464,7.0491,7.0519,7.0565,7.0596,7.064,7.0661,7.071,7.0736,7.0773,7.08,7.0786,7.0867,7.0853,7.0882,7.0881,7.0899,7.0897,7.0966,7.0913,7.0913,7.0913,7.0912,0,7.0283,7.0331,7.0383,7.042,7.0475,7.0507,7.056,7.0588,7.0629,7.067,7.0687,7.0725,7.0758,7.08,7.0821,7.0875,7.0886,7.0901,7.0906,7.09,7.0899,7.0917,7.0915,7.0915,7.0914,7.0914,7.0913,0,7.0314,7.0351,7.0418,7.0477,7.0492,7.053,7.0579,7.0615,7.0642,7.0694,7.0708,7.075,7.08,7.0831,7.0893,7.0907,7.0968,7.0971,7.0953,7.0956,7.0984,7.0981,7.1068,7.1081,7.1018,7.1018,7.1019,0,7.0347,7.0386,7.045,7.0481,7.051,7.0558,7.0591,7.0623,7.0656,7.0713,7.0741,7.0793,7.0837,7.0916,7.095,7.0998,7.1003,7.103,7.1011,7.1004,7.1005,7.1003,7.1008,7.1034,7.1034,7.1035,7.1035,0,7.0402,7.0419,7.0467,7.0522,7.0561,7.0605,7.0648,7.0672,7.0711,7.0747,7.08,7.0834,7.09,7.0951,7.1003,7.1029,7.1039,7.1041,7.1051,7.1046,7.1035,7.1042,7.0964,7.1039,7.1039,7.1038,7.1038,7.1038,7.0436,7.0472,7.0523,7.0577,7.0613,7.0654,7.0691,7.0724,7.077,7.0828,7.0843,7.0899,7.0944,7.1015,7.1043,7.1086,7.1082,7.1095,7.1099,7.1102,7.1103,7.1027,7.1095,7.1095,7.1095,7.1095,7.1095,0,7.0493,7.0527,7.0576,7.0638,7.068,7.0688,7.0736,7.077,7.082,7.0862,7.0906,7.0967,7.1017,7.1056,7.1107,7.1134,7.114,7.1147,7.1145,7.1152,7.1103,7.1091,7.1141,7.1141,7.1141,7.1141,7.1141,7.1141,7.0527,7.0589,7.0612,7.0691,7.0725,7.0782,7.081,7.0847,7.0881,7.095,7.0993,7.1019,7.106,7.1114,7.116,7.117,7.1188,7.1195,7.1205,7.116,7.1155,7.115,7.1138,7.1198,7.1198,7.125,7.1251,7.1251]}]]